DECAYED

SJ-19 DEB, 61505 (Decayed)

Orbit data source: Space-Track

SJ-19 DEB, 61505 was space debris in LEO originally from a launch on Fri, 27 Sep 2024 UTC via a CHANG ZHENG 2D launch vehicle from the Jiuquan Satellite Launch Center, China (JSC). Debris objects in space refer to the collection of defunct objects orbiting the Earth. Examples of debris include non-operational satellites, rocket bodies, and fragments generated from explosions, collisions, or faulty payload assembly.

Not visible in the next 10 days
Identifier
61505, 2024-177C
Orbit
Decayed
Last TLE update
7 months ago
Origin
Manufacturer
CAST
Mission
Decayed spacecraft
Bus & Motor
FSW-1, Unknown motor
Mass
3,550 kg wet, ~2,000 kg dry
Launch date (UTC)
2024-09-27 (7 months ago)
Launch vehicle
CHANG ZHENG 2D
Launch site
Jiuquan Satellite Launch Center, China (JSC)
Object type
Payload
Rocket body
Debris
Shape & HBR
Cyl + 1 Nozzle, 2.2 m
Radar Cross Section
3.283 m², Small (<0.1 m²)

Expand to show TLE details & history

TLE from 7 months ago
0 SJ-19 DEB
1 61505U 24177C   24292.31661204  .04774915  42759-1  64047-2 0  9998
2 61505  41.5930  28.7319 0012063  32.1081 328.0510 16.09404383  1107
Epoch: 2024-10-18T07:35Z
Definitive object data (Epoch: 2024-10-18T07:35:55.28Z)
Latitude
-0°
Longitude
-112.53652°
Altitude
241.304 km
Speed
7.768 km/s
True Right ascension
01h 54m 55s
True Declination
0° 00' 00"
Sunlit
Object was in full shadow at TLE epoch
Visualization observer readout
Visualization observer readout
Orbital elements
Apogee altitude
258.732 km
Perigee altitude
242.739 km
Semi-major axis
6,628.872 km
Eccentricity
0.0012063
Inclination
41.593°
RAAN
28.7319°
Arg. of periapsis
32.1081°
True anomaly
327.97776°
Mean anomaly
328.051°
Eccentric anomaly
328.01439°
Mean motion
4.02146 °/min
BSTAR
0.0064047
Orbital period
89.52 mins
Loading maneuver chart data...
Loading SW <> Apogee altitude chart data...
Loading historical data...
Loading historical data...
Loading historical data...
Loading historical data...
Loading historical data...
Loading historical data...
Loading historical data...
Other satellites on launch #177 in the year 2024 (2024-09-27 UTC)

SJ-19 DEB Visibility forecast

Observer location: undefined°, undefined°

This satellite is decayed
Span
Click to sort rows by Start time (UTC) header in descending order
Start Az.
Max El. time (UTC)
Max El. Az.
Max El.
End time (UTC)
End Az.
|